Regional Weather Roundup
Issued by NWS

Home | Current Version | Previous Version | Graphics & Text | Print | Product List | Glossary On
Versions: 1 2 3 4 5 6 7 8 9 10 11 12 13 14 15 16 17 18 19 20 21 22 23 24 25 26 27 28 29 30 31 32 33 34 35 36 37 38 39 40 41 42 43 44 45 46 47 48 49 50
000
ASUS43 KMPX 030710
RWRMN
WEATHER ROUNDUP FOR MINNESOTA
NATIONAL WEATHER SERVICE TWIN CITIES/CHANHASSEN MN
200 AM CDT SUN MAY 03 2015


NOTE: "FAIR" INDICATES FEW OR NO CLOUDS BELOW 12,000 FEET WITH NO
SIGNIFICANT WEATHER AND/OR OBSTRUCTIONS TO VISIBILITY. N/A MEANS
CURRENT SKY AND/OR WEATHER CONDITIONS ARE NOT AVAILABLE.

MNZ060>063-068>070-030800-
   Twin Cities Metro

CITY           SKY/WX    TMP DP  RH WIND       PRES   REMARKS
TWIN CITIES    CLEAR     64  52  64 S14       29.77F
ST PAUL        CLEAR     61  51  70 S12       29.78F
CRYSTAL        CLEAR     64  51  62 S15       29.74F
BLAINE         CLEAR     64  52  63 S15       29.76S
LAKEVILLE      CLEAR     57  50  77 S9        29.79F
EDEN PRAIRIE   CLEAR     62  51  67 S14       29.76F
SOUTH ST PAUL  CLEAR     62  51  66 S8        29.78F
LAKE ELMO      FAIR      61  52  72 S14       29.79F
$$
MNZ001>005-007-008-013>017-022>024-027-028-030800-
   Northwest Minnesota

CITY           SKY/WX    TMP DP  RH WIND       PRES   REMARKS
BEMIDJI        CLEAR     61  44  54 S7        29.62S
HALLOCK        PTCLDY    54  39  58 N10       29.64R
ROSEAU         PTCLDY    57  43  58 CALM      29.62F
WARROAD        CLEAR     57  45  62 W5        29.62F
THIEF RVR FALL CLEAR     55  46  71 SW7       29.63R
CROOKSTON      CLEAR     54  46  76 S3        29.62S
DETROIT LAKES  PTCLDY    63  50  63 S13       29.66S
MOORHEAD       PTCLDY    59  50  72 SW8       29.65S
PARK RAPIDS    MOCLDY    63  47  55 S16       29.65S
MAHNOMEN       FAIR      56  48  73 S13       29.63R
$$
MNZ006-009>011-018-025>026-030800-
   North Central Minnesota

CITY           SKY/WX    TMP DP  RH WIND       PRES   REMARKS
BAUDETTE       PTCLDY    56  44  64 NW5       29.62S
FLAG ISLAND    PTCLDY    55  48  76 W9G18     29.60S
INTL FALLS     CLOUDY    56  42  59 NW9       29.62S
WASKISH        PTCLDY    63  45  51 CALM      29.61R
BIG FORK       PTCLDY    57  45  62 CALM      29.63F
LONGVILLE      MOCLDY    63  43  48 SW3       29.64S
GRAND RAPIDS   MOCLDY    57  39  51 S5        29.65F
CRANE LAKE     CLOUDY    55  39  54 CALM      29.64S
COOK           CLOUDY    64  43  45 S7        29.65S
WALKER         FAIR      63  44  50 SW10G16   29.63R THUNDER
$$
MNZ012-019>021-037-030800-
   Northeast Minnesota

CITY           SKY/WX    TMP DP  RH WIND       PRES   REMARKS
DULUTH         CLOUDY    56  42  59 SE5       29.69F
ELY            CLOUDY    63  39  42 S5        29.67F
HIBBING        CLOUDY    59  41  51 SE7       29.66F
EVELETH        CLOUDY    57  41  54 SE6       29.68F
DULUTH HARBOR  MOCLDY    43  39  87 NE5       29.71S
TWO HARBORS    CLOUDY    48  43  81 N5        29.69S
SILVER BAY     CLOUDY    45  39  81 CALM      29.70R
GRAND MARAIS     N/A     44  41  89 CALM      29.69F
G MARAIS ARPRT CLOUDY    45  36  70 CALM      29.72F
$$
MNZ029>031-032-039>041-046>048-054>057-064-030800-
   West Central Minnesota

CITY           SKY/WX    TMP DP  RH WIND       PRES   REMARKS
FERGUS FALLS   CLOUDY    61  54  77 S16       29.68F
WHEATON        CLOUDY    64  50  59 S7        29.69R THUNDER
MORRIS         TSTM      63  55  77 SE31      29.63F
ALEXANDRIA     CLOUDY    62  50  64 SE7       29.72S
ELBOW LAKE     MOCLDY    60  53  76 E6        29.69S THUNDER
WADENA         CLOUDY    57  52  82 E5        29.70S
GLENWOOD       MOCLDY    57  52  82 SE14      29.74S
APPLETON       CLOUDY    63  50  63 E8        29.71F THUNDER
BENSON         MOCLDY    61  48  63 E3        29.75R THUNDER
ORTONVILLE     CLOUDY    63  50  63 SE12      29.67F THUNDER
MADISON        CLOUDY    64  52  63 E8        29.71F
WILLMAR        FAIR      64  54  68 CALM      29.75S THUNDER
$$
MNZ033>034-036-042>043-049>051-058-059-030800-
   Central Minnesota

CITY           SKY/WX    TMP DP  RH WIND       PRES   REMARKS
ST CLOUD       PTCLDY    64  51  62 S15       29.73S
SAUK CENTRE    PTSUNNY   58  49  71 S14       29.74S THUNDER
PAYNESVILLE    MOCLDY    62  52  70 SE6       29.76R
AITKIN         CLOUDY    64  43  45 S12       29.63F
PINE RIVER     CLOUDY    64  48  55 SW9       29.71R
BRAINERD       CLOUDY    61  48  62 S8        29.67R
STAPLES        TSTM      57  52  82 N8        29.71R
LONG PRAIRIE   FAIR      59  48  67 S9        29.72R
LITTLE FALLS   MOCLDY    63  45  51 S12       29.70S
LITCHFIELD     PTCLDY    63  54  72 SE3       29.75S
BUFFALO        PTCLDY    63  51  67 S5        29.76F
MAPLE LAKE     PTCLDY    63  55  74 S3        29.77S
$$
MNZ037-044-045-052-053-030800-
   East Central Minnesota

CITY           SKY/WX    TMP DP  RH WIND       PRES   REMARKS
PRINCETON      PTCLDY    66  54  63 S10       29.74S
MORA           MOCLDY    61  46  59 S9        29.74S
CAMBRIDGE      PTCLDY    66  52  59 S13       29.73F
RUSH CITY      PTCLDY    63  50  64 S6        29.75F
MOOSE LAKE     CLOUDY    63  45  51 S10G16    29.65F
HINCKLEY       FAIR      63  50  63 S14       29.71F
CLOQUET        CLOUDY    52  41  66 CALM      29.68F
MCGREGOR       CLOUDY    61  45  55 S5        29.66R
$$
MNZ071>073-080-081-089-090-097-098-030800-
   Southwest Minnesota

CITY           SKY/WX    TMP DP  RH WIND       PRES   REMARKS
MONTEVIDEO     MOCLDY    64  54  68 N5        29.76R THUNDER
GRANITE FALLS  PTCLDY    60  52  74 SE7       29.74R
CANBY          PTCLDY    68  53  59 N14       29.76R
MARSHALL       PTCLDY    61  48  63 S14       29.70R
REDWOOD FALLS  CLEAR     60  52  74 S14       29.73F
OLIVIA         PTCLDY    57  48  72 S12G17    29.72F
PIPESTONE      MOCLDY    59  52  77 S13       29.71F
WINDOM         PTCLDY    57  52  82 SE8       29.74S
WORTHINGTON    MOCLDY    57  48  72 S16       29.74S
JACKSON        PTCLDY    57  50  77 S13       29.76S
TRACY          CLEAR     60  52  75 S13G20    29.72R
SLAYTON        PTCLDY    56  52  85 SE13      29.74S
$$
MNZ065>067-074>077-082>085-091>093-030800-
   South Central Minnesota

CITY           SKY/WX    TMP DP  RH WIND       PRES   REMARKS
MANKATO        CLEAR     57  46  67 SE10      29.79S
NEW ULM        CLEAR     57  52  82 S10       29.77R
ST JAMES       CLEAR     59  52  77 SE10      29.77R
FAIRMONT       CLEAR     57  46  67 SE14      29.76F
GLENCOE        CLEAR     61  53  75 S10G20    29.75S
FARIBAULT      CLEAR     59  50  72 S8        29.81S
OWATONNA       CLEAR     59  48  67 S15       29.81S
WASECA         CLEAR     55  48  76 SE9       29.81S
ALBERT LEA     CLEAR     57  50  77 S10       29.81F
$$
MNZ078>079-086>088-094>096-030800-
   Southeast Minnesota

CITY           SKY/WX    TMP DP  RH WIND       PRES   REMARKS
ROCHESTER      CLEAR     56  50  80 S10       29.85F
RED WING       CLEAR     63  48  59 S7        29.82S
STANTON        CLEAR     60  49  68 S7        29.80S
DODGE CENTER   CLEAR     57  52  82 S12       29.83F
WINONA         CLEAR     61  50  67 CALM      29.86S
AUSTIN         CLEAR     55  50  82 S6        29.83F
PRESTON        CLEAR     55  49  83 S10       29.86F
$$
ABBREVIATIONS USED IN REMARKS
   TC - TEMPERATURES IN CELSIUS
  WCI - WIND CHILL INDEX
   HX - HEAT INDEX
  VSB - VISIBILITY
$$



USA.gov is the U.S. government's official web portal to all federal, state and local government web resources and services.